Wind_Speed
22 22 22 21 20 18 18 17 18 18 17 18 19 20 21 21 21 21 22 22 22 23 23 23 23 24 24 24 24 23 23 22 22 21 21 22 22 23 24 26 27 28 29
22 21 20 19 18 17 17 17 18 18 18 18 18 19 20 20 21 21 22 22 23 23 23 23 23 23 23 23 23 22 22 22 22 21 21 21 22 23 24 25 26 27 28
21 19 18 18 16 16 16 17 17 18 17 18 18 18 19 20 20 21 21 22 23 23 24 24 23 24 24 24 23 23 23 23 23 23 22 22 23 23 24 25 27 27 28
19 17 17 16 15 15 16 16 16 16 16 18 18 18 19 20 20 20 21 22 23 23 24 24 24 24 24 24 24 24 24 23 23 23 23 23 23 24 24 24 25 27 28
16 16 15 15 15 15 15 15 15 15 16 16 16 17 18 19 20 20 21 22 22 23 23 24 24 24 25 25 25 24 24 23 23 23 23 23 23 24 24 25 25 26 27
14 14 14 15 15 15 15 14 14 14 14 15 16 16 17 18 19 20 21 21 22 23 24 24 24 24 25 25 25 24 24 24 24 24 24 24 24 24 24 24 24 25 26
13 13 14 14 14 14 13 13 13 13 13 14 15 15 17 18 19 20 21 22 23 23 24 24 24 25 25 24 24 24 24 24 24 24 24 24 24 23 23 24 25 25 25
13 13 12 12 13 12 12 12 12 12 13 14 14 15 16 18 19 20 21 22 23 24 24 24 24 25 25 24 24 24 24 23 23 24 24 23 23 24 24 24 25 25 25
13 12 11 12 12 11 11 10 11 12 12 13 13 15 16 18 19 20 21 21 23 24 24 24 24 24 24 24 24 24 23 23 22 22 23 23 23 23 23 23 24 24 25
12 11 11 11 11 10 10 9 10 11 12 13 14 15 17 18 19 20 21 22 23 24 24 24 24 25 25 24 24 23 23 22 22 21 21 21 22 22 22 22 23 23 23
12 11 10 9 9 9 9 9 9 10 11 13 14 15 17 18 19 20 21 22 24 25 25 25 25 26 25 24 24 23 22 22 21 20 20 20 21 22 22 23 23 23 23
11 10 9 8 7 7 8 8 9 11 11 12 14 16 17 18 19 21 22 23 24 25 25 25 26 26 24 24 23 23 23 22 22 21 21 21 21 22 22 23 24 24 24
9 9 8 7 6 6 6 7 9 11 12 13 15 16 17 19 20 21 22 24 25 25 25 26 26 25 25 24 23 23 24 23 23 23 23 23 22 22 22 22 22 23 24
9 8 7 6 6 7 7 8 9 11 13 13 15 15 17 19 21 23 24 25 25 26 26 26 26 25 25 24 24 24 24 24 23 23 22 22 21 21 21 22 22 22 23
8 7 7 6 6 7 8 8 10 12 13 14 16 17 18 20 22 24 25 25 26 26 26 26 26 26 25 25 25 25 25 25 24 23 23 22 21 21 21 21 21 21 22
7 6 7 6 6 7 9 10 11 12 14 15 16 17 19 21 23 25 25 26 26 27 27 27 26 26 26 26 26 26 25 25 25 23 22 22 21 21 21 21 21 21 22
6 6 6 6 7 8 9 10 12 13 14 15 17 18 20 22 24 25 26 26 27 27 27 27 27 27 27 27 27 27 26 25 24 23 22 22 22 21 21 21 21 21 21
4 5 5 6 7 8 10 11 13 14 15 16 17 19 21 23 24 25 26 26 26 27 28 28 29 29 29 29 29 28 26 25 24 24 24 23 22 21 21 20 20 20 20
4 4 5 5 6 8 9 11 12 14 15 17 18 19 21 23 25 25 26 26 27 28 29 29 30 30 31 30 30 28 27 26 25 25 24 24 22 21 21 20 20 20 19
3 3 4 4 5 8 9 10 12 14 15 17 18 20 22 24 25 26 26 27 28 29 30 30 31 32 32 32 30 29 28 27 26 25 24 24 23 22 21 20 19 19 20
2 3 3 4 6 7 9 11 12 14 15 17 19 21 23 24 25 26 27 28 29 30 31 31 32 33 33 33 31 30 29 28 27 26 24 24 23 23 21 20 20 20 20
1 2 2 4 6 7 9 11 12 14 16 18 19 21 23 24 26 27 28 29 30 31 32 32 33 34 34 33 32 31 30 28 28 27 25 25 24 23 22 21 21 21 21
1 1 2 4 6 7 9 10 12 14 16 18 19 21 22 24 26 27 28 29 31 32 33 33 34 35 35 34 33 32 31 29 28 27 26 25 24 23 23 22 21 21 20
1 1 3 4 6 7 9 11 13 14 16 18 20 21 23 25 26 27 28 29 31 32 33 34 35 36 36 36 35 34 32 30 29 28 27 26 26 25 24 23 22 22 21
1 1 3 4 5 7 9 11 13 15 16 18 20 22 24 25 26 27 28 30 31 32 33 35 36 36 37 36 35 34 33 32 31 30 29 28 27 26 25 24 24 23 23
2 1 2 4 5 7 10 11 13 15 17 19 20 22 24 25 26 27 28 29 30 32 33 34 35 36 37 37 36 35 34 33 32 32 31 30 28 27 26 25 25 25 24
Wind_Direction
304 300 296 297 296 295 297 298 300 301 302 304 304 304 305 307 307 308 310 309 309 310 311 313 313 312 309 306 302 299 295 290 286 283 278 274 271 268 265 263 261 260 257
304 301 298 297 296 295 297 297 299 301 303 305 306 306 307 309 310 310 311 312 312 312 313 314 313 313 312 310 305 302 298 292 288 285 281 278 275 271 267 264 263 260 257
305 302 302 300 297 296 297 297 298 299 301 306 309 309 311 312 313 312 312 313 314 315 315 315 314 313 312 312 308 303 298 293 289 284 281 278 275 273 269 266 264 262 259
303 301 301 299 297 297 298 297 298 300 303 307 310 310 313 315 315 316 316 316 316 317 317 316 315 314 313 311 308 303 297 294 291 286 282 280 278 277 272 270 267 263 259
305 304 304 301 298 300 300 298 299 302 305 308 312 313 316 318 317 318 319 318 318 320 320 319 316 314 312 310 308 304 298 293 290 288 285 282 280 280 277 273 271 266 264
309 307 307 307 301 302 302 300 300 303 306 310 313 315 317 318 320 322 323 322 322 322 322 322 320 317 313 311 309 306 301 294 291 289 287 284 283 282 280 277 273 270 267
311 311 310 307 302 302 303 301 302 306 309 312 316 318 318 319 322 325 325 324 324 323 323 322 321 320 318 314 313 310 305 298 295 293 290 288 285 284 282 279 276 272 268
317 315 313 310 308 304 306 306 306 309 315 317 319 321 322 324 325 326 326 325 325 325 325 323 323 322 321 319 316 313 308 302 298 295 293 290 289 287 284 281 276 271 268
323 318 313 311 312 309 308 312 315 316 319 323 326 329 329 330 330 330 329 328 329 329 327 326 326 325 322 320 319 316 312 307 302 299 297 293 290 289 288 285 280 274 269
327 322 315 313 314 315 314 316 317 319 322 330 332 335 335 335 335 334 333 331 330 330 330 329 330 329 325 322 321 319 315 312 306 302 300 296 292 289 289 288 285 281 274
330 326 323 321 322 324 329 330 328 328 331 336 336 337 337 337 338 338 337 335 333 333 332 332 331 330 328 326 324 322 321 317 313 308 304 299 295 292 290 289 288 285 280
336 336 335 334 333 337 342 343 342 342 341 342 342 342 342 341 341 341 340 340 338 336 335 334 333 331 329 327 326 325 325 321 317 313 308 302 297 294 291 289 288 287 285
349 351 350 350 354 353 350 354 354 353 350 348 348 347 348 348 347 346 345 344 343 340 338 337 336 334 331 330 329 326 324 322 320 317 311 306 299 295 293 292 291 288 286
354 356 357 3 10 9 7 6 4 360 355 354 352 350 348 349 351 352 349 347 346 344 342 341 340 338 335 332 331 329 326 324 322 320 316 311 306 301 297 295 294 290 287
356 0 5 12 14 16 14 12 5 359 357 356 354 352 350 349 350 351 351 349 348 348 346 345 343 341 338 336 334 333 330 327 326 325 322 318 314 308 302 299 297 294 290
6 15 21 26 33 24 19 13 6 1 358 356 355 354 352 352 353 354 354 353 352 351 349 348 346 344 342 339 337 335 334 332 329 328 327 323 318 313 308 304 299 295 292
7 15 26 33 32 25 20 14 9 5 2 0 359 357 356 356 356 357 356 355 355 354 352 349 348 347 345 342 340 339 338 337 336 334 332 329 324 319 314 309 304 300 296
12 25 31 28 24 18 16 13 11 9 7 6 4 1 0 359 360 359 358 357 357 356 354 352 351 350 348 346 344 342 341 340 338 336 334 332 329 323 319 315 311 306 301
17 26 26 23 18 16 15 13 11 9 8 7 6 4 3 1 0 359 359 359 358 357 356 355 354 352 350 348 347 346 343 341 339 337 335 333 330 328 324 320 317 314 309
28 23 21 22 19 15 14 13 10 7 6 5 4 3 3 3 1 0 360 359 358 357 356 356 355 354 352 350 348 347 345 343 340 338 337 335 332 330 327 324 321 318 314
29 17 15 13 9 9 10 8 6 6 5 4 3 3 3 3 2 1 0 0 360 359 358 357 356 355 354 352 350 349 347 347 345 344 341 339 335 332 329 326 323 321 318
33 18 12 5 8 9 7 6 6 5 4 4 3 2 2 2 1 1 1 2 0 359 359 358 356 354 354 353 353 352 350 349 347 346 344 342 340 337 333 330 326 323 321
224 335 352 9 12 9 6 6 5 4 2 1 1 1 1 0 0 1 1 0 0 0 359 357 356 356 355 355 354 354 353 351 350 349 347 346 344 341 338 335 332 329 326
212 333 356 3 9 8 7 5 3 2 2 0 1 1 360 360 0 0 360 360 0 0 360 359 358 358 357 356 356 355 355 354 353 352 350 349 347 345 341 339 337 334 331
233 303 351 6 8 7 5 3 2 2 2 2 2 2 0 0 0 0 360 359 359 359 359 359 359 359 359 358 358 357 356 355 354 353 353 351 350 348 346 343 341 338 335
237 297 0 4 1 0 359 359 0 1 1 1 1 1 1 1 1 0 360 359 358 358 358 359 359 359 360 359 358 358 357 356 355 355 354 352 351 350 349 347 345 343 340
Height
5765 5764 5762 5760 5758 5757 5756 5754 5752 5750 5748 5745 5743 5741 5738 5735 5732 5729 5726 5723 5720 5716 5713 5709 5705 5701 5697 5694 5690 5688 5685 5683 5681 5680 5678 5677 5676 5675 5675 5674 5674 5674 5674
5760 5758 5757 5755 5753 5752 5751 5749 5748 5746 5743 5741 5738 5736 5733 5730 5727 5724 5721 5718 5714 5710 5707 5703 5699 5695 5691 5688 5685 5682 5679 5676 5675 5673 5672 5670 5669 5668 5667 5666 5666 5665 5666
5754 5753 5751 5750 5749 5748 5746 5745 5743 5741 5739 5737 5734 5731 5728 5725 5722 5719 5716 5712 5709 5705 5701 5697 5693 5689 5686 5682 5679 5676 5673 5671 5668 5667 5665 5664 5662 5661 5659 5659 5658 5657 5657
5750 5748 5747 5746 5744 5743 5742 5740 5739 5737 5735 5733 5730 5727 5724 5721 5717 5714 5711 5707 5703 5699 5695 5691 5687 5683 5680 5676 5673 5670 5667 5664 5662 5660 5658 5657 5655 5653 5652 5651 5650 5649 5649
5745 5744 5742 5741 5740 5738 5737 5735 5734 5733 5731 5728 5726 5723 5720 5717 5713 5709 5706 5702 5698 5694 5690 5685 5681 5677 5673 5669 5666 5663 5660 5658 5655 5653 5652 5650 5648 5646 5644 5643 5642 5642 5641
5742 5740 5739 5737 5735 5734 5732 5731 5730 5728 5726 5724 5722 5719 5716 5713 5709 5705 5701 5697 5693 5689 5685 5680 5676 5671 5667 5663 5659 5656 5653 5650 5648 5646 5644 5642 5640 5639 5637 5636 5635 5634 5634
5738 5737 5735 5733 5732 5730 5728 5727 5726 5724 5723 5720 5718 5715 5712 5709 5705 5701 5697 5693 5689 5684 5680 5676 5671 5666 5662 5657 5653 5649 5646 5643 5641 5639 5637 5634 5632 5631 5629 5628 5626 5626 5625
5735 5733 5731 5730 5728 5727 5725 5724 5722 5721 5719 5717 5714 5712 5709 5705 5701 5697 5693 5689 5684 5680 5675 5671 5666 5661 5656 5652 5647 5643 5639 5636 5634 5631 5629 5627 5625 5623 5621 5619 5618 5617 5617
5732 5730 5729 5727 5726 5724 5722 5721 5719 5718 5716 5714 5711 5708 5705 5702 5698 5694 5690 5685 5681 5676 5671 5666 5661 5656 5651 5646 5642 5638 5634 5630 5627 5624 5622 5619 5617 5615 5613 5611 5610 5609 5609
5729 5728 5726 5725 5723 5722 5720 5718 5717 5715 5713 5711 5708 5705 5702 5699 5695 5691 5687 5682 5677 5672 5667 5661 5656 5651 5646 5641 5637 5632 5628 5625 5621 5618 5615 5612 5610 5607 5605 5604 5602 5601 5600
5727 5725 5723 5722 5721 5719 5718 5717 5715 5713 5711 5709 5706 5703 5700 5696 5692 5688 5683 5679 5673 5668 5663 5657 5652 5646 5641 5636 5631 5627 5623 5619 5615 5612 5609 5606 5603 5601 5598 5596 5594 5593 5592
5725 5723 5721 5720 5719 5718 5717 5716 5714 5712 5710 5707 5704 5701 5698 5694 5690 5685 5680 5675 5670 5664 5659 5653 5648 5642 5636 5631 5627 5622 5618 5614 5610 5606 5603 5600 5597 5594 5592 5589 5587 5585 5584
5724 5722 5720 5719 5718 5717 5716 5715 5713 5711 5709 5706 5703 5700 5696 5692 5688 5683 5678 5672 5667 5661 5655 5649 5643 5638 5632 5627 5622 5618 5613 5609 5605 5601 5597 5594 5590 5588 5585 5583 5580 5578 5576
5724 5722 5720 5719 5718 5717 5716 5714 5713 5711 5708 5706 5703 5699 5695 5691 5686 5681 5676 5670 5664 5658 5652 5646 5640 5634 5628 5623 5619 5614 5609 5604 5600 5595 5591 5587 5584 5581 5578 5575 5573 5571 5569
5724 5722 5720 5719 5718 5717 5716 5714 5712 5711 5708 5705 5702 5698 5694 5690 5685 5679 5674 5668 5662 5656 5650 5644 5638 5632 5626 5621 5615 5610 5605 5600 5595 5590 5586 5582 5578 5574 5571 5568 5566 5564 5561
5725 5723 5722 5720 5719 5718 5716 5715 5712 5710 5707 5704 5701 5697 5693 5688 5683 5678 5672 5666 5660 5654 5648 5642 5635 5629 5623 5618 5612 5606 5601 5595 5590 5585 5581 5576 5572 5569 5565 5562 5559 5557 5555
5725 5724 5722 5721 5720 5718 5717 5715 5713 5710 5707 5704 5700 5696 5692 5687 5682 5676 5671 5665 5659 5653 5646 5640 5633 5627 5621 5614 5608 5602 5597 5591 5586 5581 5577 5572 5568 5563 5560 5556 5553 5551 5548
5725 5724 5723 5722 5721 5719 5717 5715 5713 5710 5707 5704 5700 5696 5692 5687 5681 5675 5670 5664 5658 5652 5645 5638 5632 5625 5618 5612 5605 5599 5593 5588 5583 5578 5573 5568 5563 5559 5555 5551 5548 5545 5542
5725 5724 5723 5722 5721 5719 5718 5716 5714 5711 5708 5704 5700 5696 5691 5686 5681 5675 5669 5663 5657 5650 5644 5637 5630 5623 5616 5609 5603 5596 5590 5585 5580 5574 5569 5564 5559 5555 5551 5547 5543 5540 5537
5725 5724 5723 5722 5721 5720 5718 5716 5714 5711 5708 5704 5700 5696 5691 5686 5680 5674 5668 5662 5656 5649 5643 5636 5629 5622 5614 5607 5600 5594 5588 5582 5576 5571 5565 5560 5555 5551 5546 5542 5539 5535 5532
5725 5724 5723 5722 5721 5720 5718 5716 5714 5711 5707 5704 5700 5695 5690 5685 5679 5674 5668 5662 5655 5648 5641 5634 5627 5620 5613 5605 5598 5592 5586 5580 5573 5568 5562 5557 5552 5547 5542 5538 5534 5531 5527
5724 5724 5723 5722 5721 5720 5718 5716 5713 5710 5707 5703 5699 5695 5690 5684 5679 5673 5667 5661 5654 5648 5641 5634 5626 5619 5611 5604 5597 5590 5584 5577 5571 5565 5559 5554 5549 5544 5539 5535 5530 5526 5523
5724 5723 5723 5722 5721 5720 5718 5716 5713 5710 5707 5703 5699 5694 5689 5684 5678 5673 5667 5661 5654 5647 5640 5633 5625 5618 5610 5602 5595 5588 5582 5575 5569 5563 5557 5551 5546 5541 5536 5531 5527 5523 5519
5723 5723 5723 5722 5720 5719 5717 5715 5713 5710 5706 5703 5698 5694 5689 5683 5678 5672 5666 5660 5653 5647 5639 5632 5624 5617 5609 5601 5594 5587 5580 5573 5567 5561 5555 5549 5543 5538 5533 5528 5523 5519 5515
5723 5723 5722 5721 5720 5719 5717 5715 5712 5709 5706 5702 5698 5693 5688 5683 5677 5671 5666 5659 5653 5646 5639 5631 5624 5616 5608 5601 5593 5586 5578 5572 5565 5559 5553 5547 5541 5535 5530 5525 5520 5516 5511
5722 5722 5722 5721 5719 5718 5716 5714 5711 5708 5705 5701 5697 5692 5687 5682 5677 5671 5665 5659 5652 5645 5638 5631 5623 5616 5608 5600 5592 5585 5577 5570 5564 5557 5551 5545 5539 5533 5527 5522 5517 5512 5507